Tracking 29606 objects as of 19-Sep-2024
HD Live streaming from Space Station
objects crossing your sky now

SL-12 R/B(2)

Track SL-12 R/B(2) now!


NORAD ID: 23883
Int'l Code: 1996-034D
Perigee: 36,326.3 km
Apogee: 36,592.0 km
Inclination: 15.2 °
Period: 1,470.2 minutes
Semi major axis: 42830 km
RCS: 2.9121 m2 (large)
Launch date: May 25, 1996
Source: Commonwealth of Independent States (former USSR) (CIS)
Launch site: TYURATAM MISSILE AND SPACE COMPLEX (TTMTR)

Note: This is a ROCKET BODY
Your satellite tracking list
Your tracking list is empty




NASA's NSSDC Master Catalog

Two Line Element Set (TLE):
1 23883U 96034D   24262.31160475 -.00000050  00000-0  00000-0 0  9995
2 23883  15.2386   2.5810 0031025  91.6851 277.9751  0.97944214101301
Source of the keplerian elements: AFSPC